ONEWEB-0308 (49094 NORAD) Tracking and Keplerian Element Data

This shows tracking and keplerian element data for the satellite.

Feedback or suggestion? Click here.




ElementValue
Catalog49094
NameONEWEB-0308
Epoch Orbit1141
Epoch Day300.91667824
Epoch Year2021
RAAN342.6338
Inclination87.2023
Eccentricity0.0022349
Argument of Perigee66.2597
Mean Anonmoly26.1976
Mean Motion14.84520629
Decay Rate0.00028794
L11 49094U 21075V 21300.91667824 .00028794 00000-0 33886-2 0 9990
L22 49094 87.2023 342.6338 0022349 66.2597 26.1976 14.84520629 11413

Live tracking and technical data element details for ONEWEB-0308 (NORAD 49094). ONEWEB-0308 can be tracked NOW for your location showing map with azimuth and elevation plus other details from your city location.

Track the satellite on the map from your city or location and see movement details for azimuth, elevation, latitude, longitude, range, height, and movement on the map or in text.







IsCatalogInMostPopularTable: catalog: 49094, numindb: 13
Update: records affected: 1



GetName: 49094 ONEWEB-0308

Hit Count: updated at: Thu, 28 Oct 2021 11:05:16 GMT